Richmond, VA

3:08 PM EDT on October 14, 2019 (GMT -0400)
Richmond International

Weather History for KRIC - September, 2019

Change the Weather History Date:

Saturday, September 21, 2019

  Actual Average Record
Temperature  
Mean Temperature 74 °F 69 °F  
Max Temperature 91 °F 79 °F 94 °F (1980)
Min Temperature 56 °F 58 °F 39 °F (1956)
Degree Days  
Heating Degree Days 0 1  
Month to date heating degree days 0 8  
Since 1 July heating degree days 0 9  
Cooling Degree Days 8 5  
Month to date cooling degree days 234 163  
Year to date cooling degree days 1856 1470  
Growing Degree Days 24 (Base 50)    
Moisture  
Dew Point 58 °F    
Average Humidity 62    
Maximum Humidity 87    
Minimum Humidity 34    
Precipitation  
Precipitation 0.00 in 0.13 in 1.70 in (1966)
Month to date precipitation 0.39 2.99  
Year to date precipitation 33.12 32.98  
Snow  
Snow 0.00 in 0.00 in 0.00 in (2002)
Month to date snowfall 0.0 0.0  
Since 1 July snowfall 0.0 0.0  
Snow Depth 0.00 in    
Sea Level Pressure  
Sea Level Pressure 30.23 in    
Wind  
Wind Speed 4 mph ()    
Max Wind Speed 13 mph    
Max Gust Speed 18 mph    
Visibility 10.0 miles    
Events      
T = Trace of Precipitation, MM = Missing Value Source: Averaged Metar Reports

Daily Weather History Graph

Daily Weather History Graph

Search for Another Location

Airport or City:

Astronomy

Sep. 21, 2019 Rise Set
Actual Time 6:56 AM EDT 7:08 PM EDT
Civil Twilight 6:29 AM EDT 7:34 PM EDT
Nautical Twilight 5:59 AM EDT 8:04 PM EDT
Astronomical Twilight 5:28 AM EDT 8:35 PM EDT
Moon 11:51 PM EDT (9/21) 1:52 PM EDT (9/21)
Length of Visible Light 13h 04m
Length of Day
12h 12m
Waning Gibbous, 55% of the Moon is Illuminated
Sep 21
Waning Gibbous
Sep 21
Last Quarter
Sep 28
New
Oct 5
First Quarter
Oct 13
Full

Hourly Weather History & Observations

Time (EDT) Temp. Heat Index Dew Point Humidity Pressure Visibility Wind Dir Wind Speed Gust Speed Precip Events Conditions
12:54 AM 61.0 °F - 53.1 °F 75% 30.28 in 10.0 mi SSW 4.6 mph - N/A   Clear
1:54 AM 61.0 °F - 53.1 °F 75% 30.27 in 10.0 mi South 4.6 mph - N/A   Clear
2:54 AM 60.1 °F - 53.1 °F 78% 30.27 in 10.0 mi SSE 3.5 mph - N/A   Clear
3:54 AM 59.0 °F - 53.1 °F 81% 30.26 in 10.0 mi South 3.5 mph - N/A   Clear
4:54 AM 57.0 °F - 52.0 °F 83% 30.26 in 10.0 mi South 3.5 mph - N/A   Clear
5:54 AM 57.0 °F - 53.1 °F 87% 30.27 in 10.0 mi SSE 3.5 mph - N/A   Clear
6:54 AM 57.0 °F - 53.1 °F 87% 30.27 in 10.0 mi South 3.5 mph - N/A   Partly Cloudy
7:54 AM 61.0 °F - 55.0 °F 81% 30.28 in 10.0 mi Calm Calm - N/A   Partly Cloudy
8:54 AM 66.0 °F - 55.0 °F 68% 30.28 in 10.0 mi SW 5.8 mph - N/A   Partly Cloudy
9:54 AM 72.0 °F - 57.0 °F 59% 30.28 in 10.0 mi SW 6.9 mph - N/A   Partly Cloudy
10:54 AM 77.0 °F - 57.9 °F 52% 30.27 in 10.0 mi SW 4.6 mph - N/A   Partly Cloudy
11:54 AM 82.9 °F 83.2 °F 60.1 °F 46% 30.26 in 10.0 mi Variable 4.6 mph - N/A   Partly Cloudy
12:54 PM 86.0 °F 85.4 °F 59.0 °F 40% 30.24 in 10.0 mi SW 10.4 mph - N/A   Partly Cloudy
1:54 PM 89.1 °F 88.2 °F 59.0 °F 36% 30.21 in 10.0 mi WSW 9.2 mph - N/A   Partly Cloudy
2:54 PM 91.0 °F 90.2 °F 59.0 °F 34% 30.20 in 10.0 mi West 9.2 mph - N/A   Partly Cloudy
3:54 PM 89.1 °F 88.0 °F 57.9 °F 35% 30.17 in 10.0 mi WNW 4.6 mph - N/A   Scattered Clouds
4:54 PM 88.0 °F 87.6 °F 60.1 °F 39% 30.17 in 10.0 mi SSE 6.9 mph - N/A   Partly Cloudy
5:54 PM 86.0 °F 86.1 °F 61.0 °F 43% 30.17 in 10.0 mi South 9.2 mph - N/A   Scattered Clouds
6:54 PM 81.0 °F 81.9 °F 62.1 °F 52% 30.17 in 10.0 mi South 5.8 mph - N/A   Partly Cloudy
7:54 PM 78.1 °F - 62.1 °F 58% 30.18 in 10.0 mi SE 5.8 mph - N/A   Partly Cloudy
8:54 PM 73.9 °F - 63.0 °F 68% 30.19 in 10.0 mi SE 6.9 mph - N/A   Partly Cloudy
9:54 PM 73.9 °F - 63.0 °F 68% 30.21 in 10.0 mi South 5.8 mph - N/A   Clear
10:54 PM 72.0 °F - 63.0 °F 73% 30.21 in 10.0 mi South 5.8 mph - N/A   Partly Cloudy
11:54 PM 71.1 °F - 62.1 °F 73% 30.22 in 10.0 mi SSW 4.6 mph - N/A   Partly Cloudy